User: anonymous   Login
Location: Unspecified
(0.0000°N, 0.0000°E)
Time: 07:36:48
(UTC+00:00)
Language:

Oscar 11 - Orbit

View from above orbital plane
View from above orbital plane
View from above satellite
View from above satellite

Ground track
Ground track

The orbit data is extracted from the following two-line orbital elements,

1 14781U 84021B   25118.87860111  .00002722  00000-0  29321-3 0  9998
2 14781  97.7512  86.0854 0009388 110.0458 250.1771 14.89243006195434
Epoch (UTC): 28 April 2025 21:05:11
Eccentricity: 0.0009388
inclination: 97.7512°
perigee height: 594 km
apogee height: 607 km
right ascension of ascending node: 86.0854°
argument of perigee: 110.0458°
revolutions per day: 14.89243006
mean anomaly at epoch: 250.1771°
orbit number at epoch: 19543

The dashed part of the orbit path shows where the satellite is in the earth's shadow,  

DLR